Weather in Dustobod

Uzbekistan     40°51′27″N   68°55′46″E
temp.,
°C
wind,
m/s
gust,
m/s
humid.,
%
clouds,
%
prec.,
mm/h
press.,
hPa
HPBL,
m
15 april, thu
thu1523:00+16n22585 0.0 101419
02:00+15wnw33662 0.0 101341
05:00+13e11783 0.0 101410
08:00+16sw11645 0.1 1016268
11:00+21wsw24314 0.1 10161071
14:00+24w44243 0.0 10141593
17:00+23nnw43254 0.0 10141266
20:00+18ne34384 0.0 101556
16 april, fri
fri1623:00+16ene34410 0.0 101466
02:00+15nne224679 0.0 101414
05:00+14ne1150100 0.0 101510
08:00+17s2244100 0.0 1016132
11:00+22ssw1131100 0.0 1016562
14:00+25w34210 0.0 10152145
17:00+25nnw33210 0.0 10152417
20:00+19ne34340 0.0 101649
17 april, sat
sat1723:00+17ene45395 0.0 101564
02:00+16nne33418 0.0 101429
05:00+15nne3443100 0.0 101540
08:00+18ne2336100 0.0 1017164
11:00+24nne332222 0.0 10161297
14:00+26n441768 0.0 10152050
17:00+25n6522100 0.0 10141954
20:00+19n4938100 0.0 1016177
18 april, sun
sun1823:00+18ne3340100 0.0 101752
02:00+18wsw2242100 0.0 101720
05:00+17nnw3343100 0.0 101859
08:00+19se123989 0.0 1020239
11:00+23wsw343340 0.0 10201533
14:00+25wnw44215 0.0 10183134
17:00+25nnw44203 0.0 10183045
20:00+20ne222640 0.0 101817
19 april, mon
mon1923:00+18ne333092 0.0 101720
02:00+17ne2232100 0.0 101616
05:00+16ene2232100 0.0 101622
08:00+20ese112999 0.0 1016117
11:00+25e2219100 0.0 10151419
14:00+27ne22155 0.0 10132917
17:00+26nne32165 0.0 10112754
20:00+20ne4527100 0.0 101267